[[{"header":{"parameterUnit":"m.s-1","parameterCategory":1,"la1":30.2992,"la2":30.254,"lo1":-89.0895,"lo2":-89.0443,"dy":0.0025,"dx":0.0025,"nx":19,"ny":19,"refTime":"2026-05-02T09:00:00:Z","depth":0,"parameterNumber":2,"parameterNumberName":"U-component_of_WINDS"},"data":[0,0,0,-1.7389,-1.7394,-1.7621,-1.7621,-1.7943,-1.7946,0,0,0,0,0,0,0,0,0,0,0,-1.734,-1.7342,-1.7388,-1.7394,-1.7621,-1.7622,-1.7942,-1.7946,0,0,0,0,0,0,0,0,0,0,0,-1.7338,-1.7342,-1.7345,-1.7395,-1.7621,-1.7622,-1.7942,-1.776,0,0,0,0,0,0,0,0,0,0,-1.7534,-1.7506,-1.7341,-1.7345,-1.7397,-1.762,-1.7622,-1.775,-1.7771,-1.7853,0,-1.793,0,-1.7943,-1.7969,-1.7971,0,0,0,-1.7382,-1.7489,-1.7534,-1.7346,-1.7399,-1.762,-1.7515,-1.7762,-1.7785,-1.7881,-1.7934,-1.7945,-1.7948,-1.7972,-1.7973,-1.8488,-1.8491,0,0,-1.7369,-1.7391,-1.7518,-1.755,-1.7515,-1.7508,-1.7522,-1.7775,-1.7836,-1.7935,-1.7952,-1.7954,-1.7974,-1.7977,-1.8485,-1.8489,0,0,0,-1.7342,-1.7382,-1.742,-1.7537,-1.7576,-1.7515,-1.7531,-1.7824,-1.7835,-1.7956,-1.7958,-1.7976,-1.798,-1.8482,-1.8487,-1.8659,0,0,0,-1.7334,-1.7366,-1.7415,-1.7431,-1.7572,-1.7703,-1.7575,-1.7817,-1.7845,-1.7956,-1.7976,-1.7984,-1.8479,-1.8485,-1.8647,-1.8738,0,0,0,-1.7319,-1.7364,-1.7403,-1.7431,-1.7529,-1.7698,-1.7722,-1.7823,-1.7847,-1.7971,-1.7985,-1.8476,-1.8483,-1.8636,-1.8721,-1.8883,0,0,0,-1.7309,-1.7552,-1.7406,-1.7677,-1.7528,-1.7801,-1.772,-1.7923,-1.805,-1.7978,-1.8479,-1.8486,-1.8633,-1.871,-1.8872,-1.9027,-1.9092,0,0,-1.7628,-1.7591,-1.7749,-1.7625,-1.793,-1.7764,-1.8095,-1.8191,-1.8183,-1.8387,-1.84,-1.8651,-1.8719,-1.8881,-1.9441,-1.9493,0,0,0,-1.7858,-1.7972,-1.8048,-1.8169,-1.8246,-1.8322,-1.8363,-1.8399,-1.8571,-1.8292,-1.875,-1.879,-1.8884,-1.8957,-1.9002,-1.9082,-1.852,-1.8519,-1.8518,-1.8343,-1.8318,-1.8579,-1.8583,-1.87,-1.8741,-1.8835,-1.889,-1.8831,-1.8939,-1.9002,-1.9345,-1.9431,-1.9464,-1.9549,-1.9077,-1.9078,-1.9078,-1.9079,-1.8811,-1.8971,-1.8885,-1.9108,-1.9081,-1.9268,-1.9316,-1.9268,-1.944,-1.9295,-1.9377,-1.9226,-1.9522,-1.9595,-1.9091,-1.9089,-1.9088,-1.9086,-1.9085,-1.9131,-1.9204,-1.924,-1.9412,-1.9548,-1.9541,-1.971,-1.9678,-1.9649,-1.9729,-1.9794,-1.9791,-1.9788,-1.9761,-1.9762,-1.9764,-1.9765,-1.9765,-1.9766,-1.945,-1.9486,-1.9632,-1.9734,-1.9807,-1.99,-1.9941,-2.0013,-2.0085,-2.0049,-2.0049,-1.9983,-1.9553,-1.9449,-1.9785,-1.9781,-1.9779,-1.9777,-1.9776,-1.9944,-1.9826,-2.0052,-2.0126,-2.0243,-2.0381,-2.0336,-2.0485,-2.0539,-2.0624,-2.0538,-2.0224,-2.0186,-2.015,-2.0065,-2.0539,-2.0539,-2.0539,-2.054,-2.0218,-2.0193,-2.0417,-2.0537,-2.0651,-2.0633,-2.0891,-2.0925,-2.0942,-2.0974,-2.0899,-2.078,-2.0745,-2.0728,-2.068,-2.06,-2.12,-2.1201,-2.1201,-2.0522,-2.0506,-2.0733,-2.0746,-2.0834,-2.0912,-2.1155,-2.1297,-2.1291,-2.1227,-2.1,-2.0972,-2.0779,-2.0717,-2.0655,-2.0581,-2.0433,0,0]},{"header":{"parameterUnit":"m.s-1","parameterCategory":1,"la1":30.2992,"la2":30.254,"lo1":-89.0895,"lo2":-89.0443,"dy":0.0025,"dx":0.0025,"nx":19,"ny":19,"refTime":"2026-05-02T09:00:00:Z","depth":0,"parameterNumber":3,"parameterNumberName":"V-component_of_WINDS"},"data":[0,0,0,-3.3647,-3.3652,-3.3856,-3.3857,-3.4122,-3.4125,0,0,0,0,0,0,0,0,0,0,0,-3.359,-3.3592,-3.3647,-3.3652,-3.3856,-3.3857,-3.4122,-3.4125,0,0,0,0,0,0,0,0,0,0,0,-3.3589,-3.3591,-3.3594,-3.3653,-3.3856,-3.3857,-3.4121,-3.3966,0,0,0,0,0,0,0,0,0,0,-3.3766,-3.3716,-3.3591,-3.3594,-3.3654,-3.3856,-3.3857,-3.3958,-3.3975,-3.4031,0,-3.4083,0,-3.4108,-3.4143,-3.4144,0,0,0,-3.365,-3.3702,-3.3754,-3.3594,-3.3656,-3.3856,-3.3764,-3.3968,-3.3987,-3.4054,-3.4086,-3.4096,-3.4112,-3.4144,-3.4146,-3.4478,-3.4479,0,0,-3.3639,-3.3628,-3.3741,-3.3767,-3.3737,-3.3757,-3.377,-3.3979,-3.4014,-3.4087,-3.4102,-3.4117,-3.4146,-3.4148,-3.4476,-3.4478,0,0,0,-3.3608,-3.362,-3.3667,-3.3756,-3.3793,-3.3763,-3.3778,-3.4004,-3.402,-3.4105,-3.412,-3.4148,-3.4151,-3.4474,-3.4477,-3.4549,0,0,0,-3.3601,-3.3602,-3.3663,-3.3658,-3.3789,-3.3901,-3.3798,-3.4006,-3.403,-3.4118,-3.4148,-3.4154,-3.4473,-3.4476,-3.4543,-3.4586,0,0,0,-3.3575,-3.3599,-3.363,-3.3657,-3.3745,-3.3898,-3.3926,-3.4011,-3.4039,-3.4144,-3.4154,-3.4471,-3.4475,-3.4538,-3.4577,-3.467,0,0,0,-3.3545,-3.3692,-3.3631,-3.38,-3.3743,-3.3941,-3.3925,-3.4073,-3.4172,-3.4149,-3.4473,-3.4477,-3.4537,-3.4572,-3.4665,-3.4748,-3.4781,0,0,-3.3724,-3.3713,-3.3813,-3.3764,-3.3971,-3.3911,-3.4128,-3.4228,-3.4247,-3.4399,-3.4408,-3.4545,-3.4577,-3.4669,-3.497,-3.4996,0,0,0,-3.3866,-3.3938,-3.3995,-3.4088,-3.4167,-3.4239,-3.4306,-3.4343,-3.4473,-3.4323,-3.4604,-3.4623,-3.4678,-3.4718,-3.474,-3.4788,-3.4494,-3.4494,-3.4494,-3.4105,-3.4121,-3.4288,-3.4329,-3.4419,-3.4486,-3.4561,-3.4622,-3.4612,-3.4678,-3.4724,-3.4905,-3.4951,-3.4968,-3.5018,-3.4768,-3.4768,-3.4769,-3.4769,-3.4369,-3.4474,-3.4456,-3.4612,-3.4627,-3.4758,-3.4828,-3.4816,-3.4939,-3.4871,-3.492,-3.4846,-3.4997,-3.5041,-3.4775,-3.4774,-3.4773,-3.4772,-3.4772,-3.4529,-3.4582,-3.4624,-3.4759,-3.4861,-3.4897,-3.5016,-3.5025,-3.5036,-3.5084,-3.5134,-3.5133,-3.5133,-3.5106,-3.5107,-3.5108,-3.5108,-3.5109,-3.5109,-3.4679,-3.4724,-3.4823,-3.4918,-3.4979,-3.5059,-3.5127,-3.5187,-3.5255,-3.5253,-3.5253,-3.5237,-3.5008,-3.4951,-3.5119,-3.5117,-3.5116,-3.5115,-3.5114,-3.4944,-3.4885,-3.5039,-3.5099,-3.5211,-3.5312,-3.5322,-3.5442,-3.5492,-3.555,-3.5523,-3.5352,-3.5341,-3.5323,-3.5276,-3.5519,-3.5519,-3.5519,-3.5519,-3.508,-3.5074,-3.5233,-3.5329,-3.5424,-3.5448,-3.562,-3.5673,-3.5719,-3.5751,-3.5717,-3.5654,-3.5636,-3.5636,-3.5612,-3.5568,-3.5879,-3.588,-3.588,-3.5243,-3.5247,-3.5393,-3.5437,-3.5524,-3.5599,-3.5762,-3.5872,-3.5911,-3.5895,-3.5776,-3.5761,-3.5661,-3.5627,-3.561,-3.5572,-3.5492,0,0]}]]